COSMOS 1275 DEB, 12675

Orbit data source: Space-Track

COSMOS 1275 DEB, 12675 is space debris in LEO originally from a launch on Thu, 04 Jun 1981 UTC launched from the Plesetsk Missile And Space Complex (PKMTR). Debris objects in space refer to the collection of defunct objects orbiting the Earth. Examples of debris include non-operational satellites, rocket bodies, and fragments generated from explosions, collisions, or faulty payload assembly.

Loading next visibility...
Identifier
12675, 1981-053AF
Orbit
LEO
Country
Flag of CISCIS
Related business
Manufacturer
Unknown
Mission
Spacecraft
Bus & Motor
Unknown
Mass
Unknown
Launch date (UTC)
1981-06-04 (45 years ago)
Launch vehicle
Unknown
Launch site
Plesetsk Missile And Space Complex (PKMTR)
Object type
Payload
Rocket body
Debris
Shape & HBR
Unknown shape, 0.3 m
Radar Cross Section
Medium (>0.1 m² and <1 m²)

Expand to show TLE details & history
Last TLE update: 1 day ago

TLE from 1 day ago
0 COSMOS 1275 DEB
1 12675U 81053AF  26171.47838477  .00000395  00000-0  35548-3 0  9998
2 12675  82.9356 259.7806 0062074 274.2647  97.0485 13.80998565249006
Epoch: 2026-06-20T11:28Z
TLE epoch observation values (Epoch: 2026-06-20T11:28:52.444Z)
Latitude
11.88269°
Longitude
-179.6439°
Altitude
968.367 km
Speed
7.365 km/s
True Right ascension
17h 25m 04s
True Declination
11° 48' 56"
Sunlit
Object was in full shadow at epoch
Visualization orbit readout
Latitude
Unknown
Longitude
Unknown
Altitude
Unknown
Speed
Unknown
Apparent Right ascension
Unknown
Apparent Declination
Unknown
Sunlit
N/A
Visualization observer readout
Local Sidereal Time
01:02:58
Azimuth
Unknown
Elevation
Unknown
Doppler factor
Unknown
Orbital elements
Apogee altitude
1,003.023 km
Perigee altitude
911.953 km
Semi-major axis
7,335.625 km
Eccentricity
0.00621
Inclination
82.9356°
RAAN
259.7806°
Arg. of periapsis
274.2647°
True anomaly
97.75375°
Mean anomaly
97.0485°
Eccentric anomaly
97.40119°
Mean motion
3.45452 °/min
Orbital period
104.21 mins
BSTAR
0.00035548
Loading maneuver chart data...
Computing Atmospheric mass density...

Documentation

Showing up to 5 results
|